Regional Weather Roundup
Issued by NWS

Home | Current Version | Previous Version | Graphics & Text | Print | Product List | Glossary On
Versions: 1 2 3 4 5 6 7 8 9 10 11 12 13 14 15 16 17 18 19 20 21 22 23 24 25 26 27 28 29 30 31 32 33 34 35 36 37 38 39 40 41 42 43 44 45 46 47 48 49 50
000
ASUS43 KIND 171810
RWRIN

WEATHER ROUNDUP FOR INDIANA
NATIONAL WEATHER SERVICE INDIANAPOLIS IN
200 PM EDT THU AUG 17 2017

NOTE: "FAIR" INDICATES FEW OR NO CLOUDS BELOW 12,000 FEET WITH NO
SIGNIFICANT WEATHER AND/OR OBSTRUCTIONS TO VISIBILITY.

* - STATION DOES NOT REPORT WEATHER SUCH AS PRECIPITATION OR FOG.

+ - STATION NOT QUALITY CONTROLLED BY THE NATIONAL WEATHER SERVICE.
    USE DATA WITH CAUTION...ESPECIALLY DEWPOINT AND RELATIVE
    HUMIDITY OBSERVATIONS.

INZ001>003-010>013-019-020-171900-
NORTHWEST INDIANA

CITY           SKY/WX    TMP DP  RH WIND       PRES   REMARKS
GARY /AIRPORT/ PTSUNNY   79  70  73 SW12G24   29.77S
KNOX *+        CLOUDY    79  68  69 SW15G21   29.77F
LA PORTE +     PTSUNNY   81  69  67 SW15      29.78F
6HR MIN TEMP:  72; 6HR MAX TEMP:  83;

MICHIGAN CITY+ CLOUDY    81  68  65 SW14G20   29.77S
MONTICELLO +   CLOUDY    82  67  60 SW17G24   29.80S
RENSSELAER +   CLOUDY    79  64  61 SW17G24   29.80S
VALPARAISO     CLOUDY    80  71  74 W16       29.78S
6HR MIN TEMP:  73; 6HR MAX TEMP:  83; 6HR PCP:  0.03;


$$

LMZ046-743>745-171900-
SOUTHERN LAKE MICHIGAN

STATION/POSITION TIME  TEMP    WIND        PRES    WAVE
                       AIR SEA DIR/SP/G            HT
                 (UTC) (F)     (DEG/KT/KT) (MB)    (FT)
BURNS HARBOR     1740   77     250/ 17/ 20 1008.5R
MICHIGAN CITY    1740   78     200/ 16/ 17   N/A
5NW MICH CITY    1800   76 75  270/ 14/ 19   N/A     2

$$

INZ004-005-014>016-021>024-171900-
NORTH CENTRAL INDIANA

CITY           SKY/WX    TMP DP  RH WIND       PRES   REMARKS
ELKHART        MOSUNNY   82  70  65 SW9       29.77F
GOSHEN         CLOUDY    83  70  64 SW14      29.77F
6HR MIN TEMP:  74; 6HR MAX TEMP:  83; 6HR PCP:  0.15;

LOGANSPORT +   SUNNY     81  68  65 SW13      29.82S
PERU/GRISSOM   SUNNY     81  69  66 W16       29.80F
6HR MIN TEMP:  73; 6HR MAX TEMP:  82; 6HR PCP:  0.72;

ROCHESTER +    MOSUNNY   86  70  58 SW13G21   29.80S
SOUTH BEND     CLOUDY    84  70  62 SW15G23   29.77F
6HR MIN TEMP:  74; 6HR MAX TEMP:  84; 6HR PCP: TRACE;

WARSAW +       PTSUNNY   79  72  78 SW5       29.79F

$$

INZ006>009-017-018-025>027-171900-
NORTHEAST INDIANA

CITY           SKY/WX    TMP DP  RH WIND       PRES   REMARKS
AUBURN +       CLOUDY    77  72  83 S5        29.82F
FORT WAYNE     PTSUNNY   80  72  76 SW12      29.82F
6HR MIN TEMP:  74; 6HR MAX TEMP:  82; 6HR PCP:  0.17;

HUNTINGTON +   CLOUDY    80  71  75 SW7       29.81F
6HR MIN TEMP:  73; 6HR MAX TEMP:  80; 6HR PCP:  0.17;

KENDALLVILLE + PTSUNNY   80  74  84 SW12G18   29.80F

$$

INZ028-029-035-036-043>045-051>053-171900-
WEST CENTRAL INDIANA

CITY           SKY/WX    TMP DP  RH WIND       PRES   REMARKS
GREENCASTLE +  SUNNY     81  68  65 SW3       29.86F
LAFAYETTE      PTSUNNY   80  69  69 SW15G26   29.81S
6HR MIN TEMP:  73; 6HR MAX TEMP:  81; 6HR PCP:  0.10;

TERRE HAUTE    MOSUNNY   81  70  69 SW15G23   29.86F
6HR MIN TEMP:  73; 6HR MAX TEMP:  83; 6HR PCP:  0.02;


$$

INZ030>032-037>040-046>048-054>057-064-065-171900-
CENTRAL INDIANA

CITY           SKY/WX    TMP DP  RH WIND       PRES   REMARKS
CP ATTERBURY + MOSUNNY   81  73  78 W10G17    29.88S
COLUMBUS       PTSUNNY   81  73  78 W14G21    29.87F
FRANKFORT +    MOSUNNY   85  70  60 W12G21    29.85S
6HR MIN TEMP:  74; 6HR MAX TEMP:  85; 6HR PCP:  0.43;

GREENWOOD *+   MOSUNNY   81  71  71 W13G21    29.88S
6HR MIN TEMP:  74; 6HR MAX TEMP:  82;

INDIANAPOLIS   MOSUNNY   85  70  60 W18       29.85F
6HR MIN TEMP:  74; 6HR MAX TEMP:  85; 6HR PCP:  0.03;

-EAGLE CREEK   SUNNY     84  68  58 SW8G18    29.84F
6HR MIN TEMP:  75; 6HR MAX TEMP:  84; 6HR PCP:  0.01;

KOKOMO +       SUNNY     82  69  64 SW12      29.83F
6HR MIN TEMP:  73; 6HR MAX TEMP:  82; 6HR PCP:  0.55;

MARION +       MOSUNNY   81  70  69 W14G25    29.84S
MT COMFORT *+  MOSUNNY   81  73  78 W15G21    29.87S
SHELBYVILLE    MOSUNNY   83  72  69 SW14G28   29.86R
6HR MIN TEMP:  75; 6HR MAX TEMP:  84; 6HR PCP:  0.32;

ZIONSVILLE +   SUNNY     81  69  65 W14G22    29.85F
6HR MIN TEMP:  73; 6HR MAX TEMP:  81; 6HR PCP:  0.09;


$$

INZ033-034-041-042-049-050-058-059-171900-
EAST CENTRAL INDIANA

CITY           SKY/WX    TMP DP  RH WIND       PRES   REMARKS
MUNCIE         MOSUNNY   82  72  71 SW10      29.85S
6HR MIN TEMP:  76; 6HR MAX TEMP:  86; 6HR PCP:  0.67;

RICHMOND +     LGT RAIN  73  72  94 SW10      29.90R

$$

INZ060-061-067>069-081>083-085>088-171900-
SOUTHWEST INDIANA

CITY           SKY/WX    TMP DP  RH WIND       PRES   REMARKS
EVANSVILLE     MOSUNNY   88  71  57 SW15      29.90F
6HR MIN TEMP:  77; 6HR MAX TEMP:  88;

HUNTINGBURG +  CLOUDY    87  76  69 W15       29.90F HX  97
6HR MIN TEMP:  76; 6HR MAX TEMP:  87;

WASHINGTON +   CLOUDY    84  68  58 MISG      29.89F
6HR MIN TEMP:  76; 6HR MAX TEMP:  85;


$$

INZ062-063-066-070>080-084-089>092-171900-
SOUTH CENTRAL AND SOUTHEAST INDIANA

CITY           SKY/WX    TMP DP  RH WIND       PRES   REMARKS
BEDFORD +      PTSUNNY   82  72  69 W9G21     29.88
BLOOMINGTON    PTSUNNY   83  70  64 W13G22    29.89S
6HR MIN TEMP:  76; 6HR MAX TEMP:  83; 6HR PCP:  0.05;

MADISON *+     PTSUNNY   86  70  58 SW8       29.89F
NORTH VERNON + LGT RAIN  75  72  88 SW9G24    29.89S
SEYMOUR +      CLOUDY    81  73  78 SW14G20   29.88  THUNDER

$$




USA.gov is the U.S. government's official web portal to all federal, state and local government web resources and services.